Olean, NY

2:42 AM EST on February 23, 2018 (GMT -0500)
Cattaraugus County-Olean

Weather History for KOLE - October, 2012

Change the Weather History Date:

Friday, October 5, 2012

  Actual Average (KBFD) Record (KBFD)
Temperature  
Mean Temperature 58 °F -  
Max Temperature 66 °F 60 °F 81 °F (2007)
Min Temperature 51 °F 38 °F 24 °F (1958)
Degree Days  
Heating Degree Days 6    
Growing Degree Days 8 (Base 50)    
Moisture  
Dew Point 52 °F    
Average Humidity 84    
Maximum Humidity 100    
Minimum Humidity 64    
Precipitation  
Precipitation 0.00 in - - ()
Sea Level Pressure  
Sea Level Pressure 30.03 in    
Wind  
Wind Speed 5 mph ()    
Max Wind Speed 13 mph    
Max Gust Speed 23 mph    
Visibility 9.9 miles    
Events Rain    
Averages and records for this station are not official NWS values.
T = Trace of Precipitation, MM = Missing Value Source: Averaged Metar Reports

Daily Weather History Graph

Daily Weather History Graph

Search for Another Location

Airport or City:

Trip Planner

Search our weather history database for the weather conditions in past years. The results will help you decide how hot, cold, wet, or windy it might be!

Date:

Astronomy

Oct. 05, 2012 Rise Set
Actual Time 7:15 AM EDT 6:47 PM EDT
Civil Twilight 6:47 AM EDT 7:15 PM EDT
Nautical Twilight 6:14 AM EDT 7:47 PM EDT
Astronomical Twilight 5:42 AM EDT 8:20 PM EDT
Moon 10:04 PM EDT (10/5) 12:26 PM EDT (10/5)
Length of Visible Light 12h 27m
Length of Day
11h 31m
Waning Gibbous, 74% of the Moon is Illuminated
Oct 5
Waning Gibbous
Oct 8
Last Quarter
Oct 15
New
Oct 21
First Quarter
Oct 29
Full

Hourly Weather History & Observations

Time (EDT) Temp. Dew Point Humidity Pressure Visibility Wind Dir Wind Speed Gust Speed Precip Events Conditions
12:15 AM 55.4 °F 50.0 °F 82% 30.11 in 10.0 mi WSW 5.8 mph - N/A   Clear
12:35 AM 55.4 °F 50.0 °F 82% 30.11 in 10.0 mi SW 4.6 mph - N/A   Clear
12:55 AM 55.4 °F 50.0 °F 82% 30.10 in 10.0 mi WSW 5.8 mph - N/A   Clear
1:15 AM 55.4 °F 50.0 °F 82% 30.10 in 10.0 mi SW 6.9 mph - N/A   Clear
1:35 AM 53.6 °F 50.0 °F 88% 30.10 in 10.0 mi SW 4.6 mph - N/A   Scattered Clouds
1:55 AM 53.6 °F 50.0 °F 88% 30.10 in 10.0 mi SSW 6.9 mph - N/A   Scattered Clouds
2:15 AM 51.8 °F 50.0 °F 94% 30.10 in 10.0 mi SSW 4.6 mph - N/A   Clear
2:35 AM 51.8 °F 50.0 °F 94% 30.10 in 10.0 mi SSW 4.6 mph - N/A   Clear
2:55 AM 53.6 °F 50.0 °F 88% 30.09 in 10.0 mi SSW 5.8 mph - N/A   Scattered Clouds
3:15 AM 53.6 °F 50.0 °F 88% 30.09 in 10.0 mi SSW 8.1 mph - N/A   Scattered Clouds
3:35 AM 53.6 °F 50.0 °F 88% 30.09 in 10.0 mi SSW 8.1 mph - N/A   Clear
3:55 AM 53.6 °F 50.0 °F 88% 30.09 in 10.0 mi SSW 5.8 mph - N/A   Clear
4:15 AM 53.6 °F 50.0 °F 88% 30.08 in 10.0 mi SSW 4.6 mph - N/A   Clear
4:35 AM 53.6 °F 50.0 °F 88% 30.08 in 10.0 mi SSW 6.9 mph - N/A   Clear
4:55 AM 51.8 °F 50.0 °F 94% 30.08 in 10.0 mi SSW 6.9 mph - N/A   Clear
5:15 AM 51.8 °F 50.0 °F 94% 30.08 in 10.0 mi SSW 8.1 mph - N/A   Clear
5:35 AM 51.8 °F 50.0 °F 94% 30.08 in 10.0 mi SSW 6.9 mph - N/A   Clear
5:55 AM 51.8 °F 50.0 °F 94% 30.07 in 10.0 mi SSW 5.8 mph - N/A   Scattered Clouds
6:15 AM 51.8 °F 50.0 °F 94% 30.06 in 10.0 mi SSW 5.8 mph - N/A   Scattered Clouds
6:35 AM 51.8 °F 50.0 °F 94% 30.07 in 10.0 mi SW 3.5 mph - N/A   Clear
6:55 AM 51.8 °F 50.0 °F 94% 30.07 in 10.0 mi SSW 5.8 mph - N/A   Clear
7:15 AM 51.8 °F 50.0 °F 94% 30.07 in 10.0 mi SSW 5.8 mph - N/A   Scattered Clouds
7:35 AM 53.6 °F 50.0 °F 88% 30.08 in 10.0 mi SW 6.9 mph - N/A   Mostly Cloudy
7:55 AM 53.6 °F 50.0 °F 88% 30.08 in 10.0 mi SW 5.8 mph - N/A   Overcast
8:35 AM 53.6 °F 51.8 °F 94% 30.08 in 10.0 mi SSW 4.6 mph - N/A   Overcast
8:55 AM 53.6 °F 51.8 °F 94% 30.07 in 10.0 mi SSW 5.8 mph - N/A   Overcast
9:15 AM 57.2 °F 51.8 °F 82% 30.07 in 10.0 mi SW 4.6 mph - N/A   Overcast
9:35 AM 59.0 °F 53.6 °F 82% 30.07 in 10.0 mi SW 6.9 mph - N/A   Mostly Cloudy
9:55 AM 59.0 °F 53.6 °F 82% 30.07 in 10.0 mi SW 5.8 mph - N/A   Mostly Cloudy
10:15 AM 60.8 °F 53.6 °F 77% 30.07 in 10.0 mi SW 5.8 mph - N/A   Overcast
10:35 AM 60.8 °F 53.6 °F 77% 30.06 in 10.0 mi SW 8.1 mph - N/A   Overcast
10:55 AM 60.8 °F 53.6 °F 77% 30.06 in 10.0 mi SW 6.9 mph - N/A   Overcast
11:15 AM 62.6 °F 55.4 °F 77% 30.04 in 10.0 mi SW 4.6 mph - N/A   Mostly Cloudy
11:35 AM 62.6 °F 55.4 °F 77% 30.05 in 10.0 mi WSW 9.2 mph - N/A   Overcast
11:55 AM 64.4 °F 55.4 °F 73% 30.04 in 10.0 mi WSW 3.5 mph - N/A   Mostly Cloudy
12:35 PM 64.4 °F 55.4 °F 73% 30.03 in 10.0 mi WSW 5.8 mph - N/A   Overcast
12:55 PM 66.2 °F 53.6 °F 64% 30.03 in 10.0 mi WSW 12.7 mph 23.0 mph N/A   Mostly Cloudy
1:15 PM 64.4 °F 53.6 °F 68% 30.03 in 10.0 mi West 4.6 mph - N/A   Overcast
1:35 PM 64.4 °F 55.4 °F 73% 30.02 in 10.0 mi West 5.8 mph - N/A   Overcast
1:55 PM 62.6 °F 53.6 °F 72% 30.02 in 10.0 mi West 9.2 mph 16.1 mph N/A   Overcast
2:35 PM 62.6 °F 53.6 °F 72% 30.01 in 10.0 mi WSW 8.1 mph - N/A   Overcast
2:55 PM 62.6 °F 53.6 °F 72% 30.01 in 10.0 mi West 3.5 mph - N/A   Overcast
3:15 PM 62.6 °F 53.6 °F 72% 30.01 in 10.0 mi WSW 5.8 mph - N/A   Overcast
3:35 PM 60.8 °F 53.6 °F 77% 30.01 in 10.0 mi West 4.6 mph - N/A   Overcast
3:55 PM 62.6 °F 53.6 °F 72% 30.01 in 10.0 mi WSW 9.2 mph - N/A   Overcast
4:15 PM 62.6 °F 53.6 °F 72% 30.00 in 10.0 mi West 9.2 mph - N/A   Overcast
4:35 PM 60.8 °F 53.6 °F 77% 30.00 in 10.0 mi WSW 4.6 mph - N/A   Overcast
4:55 PM 60.8 °F 53.6 °F 77% 30.00 in 10.0 mi West 6.9 mph - N/A   Overcast
5:15 PM 60.8 °F 53.6 °F 77% 30.00 in 10.0 mi WSW 5.8 mph - N/A   Overcast
5:35 PM 60.8 °F 53.6 °F 77% 29.99 in 10.0 mi WSW 5.8 mph - N/A   Overcast
5:55 PM 60.8 °F 53.6 °F 77% 29.99 in 10.0 mi West 6.9 mph - N/A   Overcast
6:15 PM 60.8 °F 53.6 °F 77% 29.97 in 10.0 mi WSW 4.6 mph 18.4 mph N/A   Overcast
6:35 PM 59.0 °F 53.6 °F 82% 29.97 in 10.0 mi WSW 5.8 mph - N/A   Overcast
6:55 PM 59.0 °F 53.6 °F 82% 29.97 in 10.0 mi SW 5.8 mph - N/A   Overcast
7:15 PM 59.0 °F 53.6 °F 82% 29.96 in 10.0 mi WSW 8.1 mph - N/A   Overcast
7:35 PM 59.0 °F 51.8 °F 77% 29.96 in 10.0 mi SW 9.2 mph - N/A   Overcast
7:55 PM 59.0 °F 53.6 °F 82% 29.97 in 10.0 mi WSW 4.6 mph - N/A   Overcast
8:15 PM 59.0 °F 53.6 °F 82% 29.96 in 10.0 mi WSW 4.6 mph - N/A Rain Light Rain
8:35 PM 57.2 °F 53.6 °F 88% 29.95 in 10.0 mi WSW 5.8 mph - N/A   Light Drizzle
8:55 PM 57.2 °F 53.6 °F 88% 29.94 in 10.0 mi WSW 3.5 mph - N/A   Overcast
9:15 PM 57.2 °F 53.6 °F 88% 29.94 in 10.0 mi WSW 3.5 mph - N/A   Overcast
9:35 PM 57.2 °F 53.6 °F 88% 29.93 in 10.0 mi SSW 3.5 mph - N/A   Overcast
9:55 PM 57.2 °F 53.6 °F 88% 29.93 in 10.0 mi Calm Calm - N/A   Overcast
10:15 PM 55.4 °F 53.6 °F 94% 29.92 in 10.0 mi Calm Calm - N/A   Overcast
10:35 PM 55.4 °F 53.6 °F 94% 29.92 in 10.0 mi Calm Calm - N/A Rain Rain
10:55 PM 55.4 °F 53.6 °F 94% 29.91 in 10.0 mi West 3.5 mph - N/A Rain Light Rain
11:35 PM 55.4 °F 55.4 °F 100% 29.89 in 5.0 mi Calm Calm - N/A   Overcast
11:55 PM 53.6 °F 53.6 °F 100% 29.89 in 7.0 mi Calm Calm - N/A   Overcast